This is the latest recevied weather packets stored in our database for station/object KF7PIZ. If no packets are shown the sender has not sent any weather packets the latest 10 day(s).
| Time | Temp. | Humidity | Pressure | Rain* | Wind** | Luminosity | Snow |
|---|---|---|---|---|---|---|---|
| 1777409305 | 17.78° C | 31% | 1019.6 hPa | 0 mm | - | 125 W/m² | - |
| 1777409002 | 18.33° C | 28% | 1019.7 hPa | 0 mm | - | 123 W/m² | - |
| 1777408699 | 20° C | 27% | 1019.8 hPa | 0 mm | - | 158 W/m² | - |
| 1777408395 | 21.11° C | 28% | 1019.9 hPa | 0 mm | - | 629 W/m² | - |
| 1777408095 | 21.11° C | 28% | 1019.6 hPa | 0 mm | - | 864 W/m² | - |
| 1777407791 | 21.67° C | 26% | 1019.9 hPa | 0 mm | - | 827 W/m² | - |
| 1777407486 | 20.56° C | 29% | 1019.7 hPa | 0 mm | - | 883 W/m² | - |
| 1777407181 | 20° C | 30% | 1019.9 hPa | 0 mm | - | 810 W/m² | - |
| 1777406876 | 20.56° C | 30% | 1019.8 hPa | 0 mm | - | 649 W/m² | - |
| 1777406572 | 20° C | 28% | 1020.1 hPa | 0 mm | - | 669 W/m² | - |
| 1777406268 | 20° C | 29% | 1019.8 hPa | 0 mm | - | 832 W/m² | - |
| 1777405967 | 20.56° C | 29% | 1020.2 hPa | 0 mm | - | 459 W/m² | - |
| 1777405663 | 20.56° C | 34% | 1020.2 hPa | 0 mm | - | 340 W/m² | - |
| 1777405361 | 19.44° C | 31% | 1020.1 hPa | 0 mm | - | 883 W/m² | - |
| 1777405056 | 18.89° C | 33% | 1020.1 hPa | 0 mm | - | 813 W/m² | - |
| 1777404751 | 18.33° C | 38% | 1020.3 hPa | 0 mm | - | 751 W/m² | - |
| 1777404447 | 17.22° C | 35% | 1020.5 hPa | 0 mm | - | 726 W/m² | - |
| 1777404143 | 16.11° C | 38% | 1020.6 hPa | 0 mm | - | 403 W/m² | - |
| 1777403840 | 15.56° C | 43% | 1020.9 hPa | 0 mm | - | 664 W/m² | - |
| 1777403535 | 14.44° C | 43% | 1020.4 hPa | 0 mm | - | 385 W/m² | - |
| 1777403235 | 13.89° C | 42% | 1020.9 hPa | 0 mm | - | 271 W/m² | - |
| 1777402930 | 13.89° C | 46% | 1020.6 hPa | 0 mm | - | 225 W/m² | - |
| 1777402625 | 13.89° C | 47% | 1020.7 hPa | 0 mm | - | 223 W/m² | - |
| 1777402324 | 13.33° C | 52% | 1020.9 hPa | 0 mm | - | 191 W/m² | - |
| 1777402023 | 13.89° C | 48% | 1021 hPa | 0 mm | - | 161 W/m² | - |
* Rain latest hour (hover to see other rain measurements)
** Current wind speed in m/s (hover to see current wind gust speed)